2023/02/18 00:00:00,32.0, 1.7
2023/02/18 00:10:00,31.9, 1.9
2023/02/18 00:20:00,32.1, 1.8
2023/02/18 00:30:00,32.1, 1.6
2023/02/18 00:40:00,32.0, 1.7
2023/02/18 00:50:00,32.0, 1.7
2023/02/18 01:00:00,31.9, 1.7
2023/02/18 01:10:00,31.9, 1.6
2023/02/18 01:20:00,32.0, 1.7
2023/02/18 01:30:00,32.1, 1.9
2023/02/18 01:40:00,32.0, 1.8
2023/02/18 01:50:00,31.9, 1.9
2023/02/18 02:00:00,31.9, 1.5
2023/02/18 02:10:00,31.8, 2.1
2023/02/18 02:20:00,31.7, 1.7
2023/02/18 02:30:00,31.8, 1.8
2023/02/18 02:40:00,31.8, 1.8
2023/02/18 02:50:00,31.6, 2.0
2023/02/18 03:00:00,31.6, 2.1
2023/02/18 03:10:00,31.7, 2.0
2023/02/18 03:20:00,31.5, 2.1
2023/02/18 03:30:00,31.5, 2.3
2023/02/18 03:40:00,31.4, 2.4
2023/02/18 03:50:00,31.4, 2.3
2023/02/18 04:00:00,31.3, 2.3
2023/02/18 04:10:00,31.4, 2.6
2023/02/18 04:20:00,31.4, 2.3
2023/02/18 04:30:00,31.4, 2.5
2023/02/18 04:40:00,31.4, 2.6
2023/02/18 04:50:00,31.1, 2.5
2023/02/18 05:00:00,31.1, 2.4
2023/02/18 05:10:00,31.0, 2.5
2023/02/18 05:20:00,31.0, 2.7
2023/02/18 05:30:00,30.9, 2.8
2023/02/18 05:40:00,30.9, 2.8
2023/02/18 05:50:00,30.9, 2.9
2023/02/18 06:00:00,30.8, 2.5
2023/02/18 06:10:00,30.3, 2.7
2023/02/18 06:20:00,30.3, 2.3
2023/02/18 06:30:00,30.4, 2.8
2023/02/18 06:40:00,30.0, 2.9
2023/02/18 06:50:00,29.8, 3.1
2023/02/18 07:00:00,29.8, 2.6
2023/02/18 07:10:00,29.9, 2.9
2023/02/18 07:20:00,29.8, 2.7
2023/02/18 07:30:00,29.8, 2.9
2023/02/18 07:40:00,29.8, 2.6
2023/02/18 07:50:00,29.7, 2.5
2023/02/18 08:00:00,29.8, 2.6
2023/02/18 08:10:00,29.5, 2.9
2023/02/18 08:20:00,29.5, 2.8
2023/02/18 08:30:00,29.4, 2.9
2023/02/18 08:40:00,29.4, 2.9
2023/02/18 08:50:00,29.5, 2.9
2023/02/18 09:00:00,29.6, 2.9
2023/02/18 09:10:00,29.5, 3.3
2023/02/18 09:20:00,29.6, 4.1
2023/02/18 09:30:00,29.4, 4.0
2023/02/18 09:40:00,29.1, 4.9
2023/02/18 09:50:00,28.8, 5.5
2023/02/18 10:00:00,28.8, 5.2
2023/02/18 10:10:00,28.8, 5.4
2023/02/18 10:20:00,28.7, 5.3
2023/02/18 10:30:00,28.6, 6.2
2023/02/18 10:40:00,28.6, 6.2
2023/02/18 10:50:00,28.4, 5.8
2023/02/18 11:00:00,28.6, 5.9
2023/02/18 11:10:00,28.5, 6.0
2023/02/18 11:20:00,28.4, 5.7
2023/02/18 11:30:00,28.4, 6.2
2023/02/18 11:40:00,28.5, 5.7
2023/02/18 11:50:00,28.5, 5.8
2023/02/18 12:00:00,28.7, 6.0
2023/02/18 12:10:00,29.0, 6.3
2023/02/18 12:20:00,29.0, 6.1
2023/02/18 12:30:00,28.7, 5.9
2023/02/18 12:40:00,28.6, 4.9
2023/02/18 12:50:00,28.5, 6.2
2023/02/18 13:00:00,28.5, 5.4
2023/02/18 13:10:00,28.2, 5.8
2023/02/18 13:20:00,28.1, 5.8
2023/02/18 13:30:00,27.7, 5.7
2023/02/18 13:40:00,27.6, 5.1
2023/02/18 13:50:00,27.6, 4.9
2023/02/18 14:00:00,27.6, 5.0
2023/02/18 14:10:00,27.6, 5.0
2023/02/18 14:20:00,27.7, 5.2
2023/02/18 14:30:00,27.7, 5.0
2023/02/18 14:40:00,27.5, 5.1
2023/02/18 14:50:00,27.2, 5.1
2023/02/18 15:00:00,27.5, 5.0
2023/02/18 15:10:00,27.3, 4.8
2023/02/18 15:20:00,27.3, 5.1
2023/02/18 15:30:00,27.4, 5.6
2023/02/18 15:40:00,---, 5.2
2023/02/18 15:50:00,27.0, 5.1
2023/02/18 16:00:00,26.9, 5.5
2023/02/18 16:10:00,26.9, 5.3
2023/02/18 16:20:00,27.1, 5.5
2023/02/18 16:30:00,26.7, 5.2
2023/02/18 16:40:00,26.8, 5.4
2023/02/18 16:50:00,---, 6.2
2023/02/18 17:00:00,58.5, 5.8
2023/02/18 17:10:00,70.4, 6.5
2023/02/18 17:20:00,---, 6.5
2023/02/18 17:30:00,128.7, 5.7
2023/02/18 17:40:00,114.9, 5.9
2023/02/18 17:50:00,---, 5.7
2023/02/18 18:00:00,136.1, 6.2
2023/02/18 18:10:00,159.9, 5.7
2023/02/18 18:20:00,160.0, 5.8
2023/02/18 18:30:00,143.9, 5.5
2023/02/18 18:40:00,136.3, 5.3
2023/02/18 18:50:00,128.4, 5.5
2023/02/18 19:00:00,128.5, 4.8
2023/02/18 19:10:00,104.7, 4.8
2023/02/18 19:20:00,---, 4.7
2023/02/18 19:30:00,49.4, 4.3
2023/02/18 19:40:00,---, 4.2
2023/02/18 19:50:00,---, 5.0
2023/02/18 20:00:00,105.1, 4.5
2023/02/18 20:10:00,25.1, 4.4
2023/02/18 20:20:00,---, 5.0
2023/02/18 20:30:00,105.0, 4.9
2023/02/18 20:40:00,104.0, 5.1
2023/02/18 20:50:00,---, 4.7
2023/02/18 21:00:00,104.7, 4.9
2023/02/18 21:10:00,104.2, 4.4
2023/02/18 21:20:00,104.3, 4.2
2023/02/18 21:30:00,104.6, 4.7
2023/02/18 21:40:00,104.4, 5.1
2023/02/18 21:50:00,---, 5.2
2023/02/18 22:00:00,---, 5.4
2023/02/18 22:10:00,103.4, 5.0
2023/02/18 22:20:00,103.4, 4.8
2023/02/18 22:30:00,71.9, 4.3
2023/02/18 22:40:00,103.5, 5.0
2023/02/18 22:50:00,103.5, 5.0
2023/02/18 23:00:00,103.5, 4.7
2023/02/18 23:10:00,103.2, 5.1
2023/02/18 23:20:00,103.2, 5.1
2023/02/18 23:30:00,103.5, 5.0
2023/02/18 23:40:00,103.4, 5.1
2023/02/18 23:50:00,182.4, 5.8
